Location: Bush Observatory
(40.2653°N, 94.3194°W)
Time: 17:42:45
(UTC-05:00)

JAS-2 - Visible Passes

Search period start: 30 August 2015 00:00
Search period end: 09 September 2015 00:00
Orbit: 801 x 1321 km, 98.5° (Epoch: 30 August)

Date Brightness Start Highest point End Pass type
(mag) Time Alt. Az. Time Alt. Az. Time Alt. Az.
30 Aug 11.7 03:00:15 10° NE 03:04:35 18° E 03:07:50 13° ESE visible
30 Aug 9.7 04:43:30 10° N 04:50:40 74° WNW 04:54:18 28° SSW visible
31 Aug 10.5 03:48:51 10° NNE 03:55:30 44° E 03:58:24 28° SSE visible
31 Aug 10.5 05:34:09 10° N 05:40:21 33° WNW 05:44:52 14° WSW visible
01 Sep 11.8 02:55:45 10° NE 02:59:34 16° E 03:02:30 13° ESE visible
01 Sep 9.6 04:38:42 10° N 04:45:46 79° WNW 04:48:58 32° SSW visible
02 Sep 10.6 03:44:06 10° NNE 03:50:32 41° E 03:53:04 29° SE visible
02 Sep 10.4 05:29:17 10° N 05:35:29 34° WNW 05:39:32 17° WSW visible
03 Sep 11.8 02:51:18 10° NE 02:54:33 14° E 02:57:10 12° ESE visible
03 Sep 9.5 04:33:54 10° NNE 04:40:51 84° WNW 04:43:38 36° SSW visible
04 Sep 10.7 03:39:23 10° NNE 03:45:33 37° E 03:47:44 29° SE visible
04 Sep 10.3 05:24:26 10° N 05:30:37 36° WNW 05:34:12 20° WSW visible
05 Sep 11.9 02:46:58 10° ENE 02:49:30 13° E 02:51:49 11° ESE visible
05 Sep 9.5 04:29:05 10° NNE 04:35:55 89° WNW 04:38:17 41° SSW visible
05 Sep 11.3 06:16:04 10° NNW 06:19:57 16° NW 06:23:19 10° W visible
06 Sep 10.8 03:34:39 10° NNE 03:40:34 34° E 03:42:23 29° SE visible
06 Sep 10.2 05:19:35 10° N 05:25:43 38° WNW 05:28:51 23° WSW visible
07 Sep 12.0 02:42:51 10° ENE 02:44:27 11° E 02:46:28 10° E visible
07 Sep 9.5 04:24:16 10° NNE 04:30:59 86° ESE 04:32:56 46° S visible
07 Sep 11.2 06:11:07 10° NNW 06:15:05 16° WNW 06:18:33 10° W visible
08 Sep 10.8 03:29:56 10° NNE 03:35:34 31° E 03:37:01 28° ESE visible
08 Sep 10.1 05:14:43 10° N 05:20:49 40° WNW 05:23:29 26° WSW visible
